Location: Sawbridgeworth
(51.8167°N, 0.1500°E)
Time: 18:58:32
(UTC+00:00)

Daily predictions for brighter satellites

Satellite Brightness Start Highest point End
(mag) Time Altitude Azimuth Time Altitude Azimuth Time Altitude Azimuth
HJ-1C 3.7 18:21:55 10° SE 18:25:04 42° ENE 18:28:13 10° N
COSMOS 2428 3.6 18:20:41 10° SSE 18:25:18 26° ESE 18:29:56 10° NE
SL-16 R/B 2.8 18:22:31 10° SW 18:28:08 62° NW 18:33:48 10° NNE
SKYMED 2 3.8 18:26:43 10° NNE 18:31:06 81° WNW 18:35:26 10° SSW
Cosmos 1470 Rocket 3.6 18:26:42 10° S 18:31:10 90° E 18:35:38 10° N
Cosmos 2369 Rocket 4.2 18:29:04 10° N 18:31:31 13° NNE 18:33:57 10° NE
USA 307 3.0 18:27:14 10° WNW 18:31:32 71° N 18:35:48 10° E
USA 306 3.0 18:28:29 10° WNW 18:32:49 72° NNE 18:37:05 10° E
SL-8 Rocket 4.3 18:29:02 10° SSE 18:34:50 44° E 18:40:38 10° NNE
CENTAUR R/B 3.9 18:31:48 10° SE 18:35:01 15° ESE 18:38:29 10° ENE
ATLAS CENTAUR R/B 1.2 18:32:08 10° SW 18:35:47 79° NW 18:39:31 10° NE
Meteor 2-12 Rocket 4.4 18:31:46 10° S 18:37:51 84° E 18:44:01 10° NNE
Cosmos 1743 4.5 18:39:33 10° ESE 18:41:31 14° E 18:43:28 10° NE
Cosmos 1703 Rocket 3.5 18:37:39 10° N 18:42:05 84° E 18:46:26 10° SSE
USA 308 3.0 18:38:04 10° WNW 18:42:22 75° NNE 18:46:15 12° E
Cosmos 1666 2.8 18:39:23 10° S 18:42:59 48° E 18:46:37 10° NNE
Cosmos 1844 Rocket 3.8 18:40:29 10° NW 18:45:48 46° WSW 18:51:05 10° S
Cosmos 2322 3.9 18:40:26 10° S 18:45:57 52° ESE 18:51:30 10° NE
CSL-04 Rocket 3.7 18:41:13 10° SSE 18:46:42 71° ENE 18:52:10 10° NNW
Okean-O 2.9 18:45:24 10° S 18:49:49 73° WSW 18:54:16 10° NNW
ASTEX 1 4.3 18:46:14 10° NNE 18:50:23 27° E 18:54:31 10° SE
Cosmos 1777 Rocket 4.1 18:45:13 10° NNW 18:50:30 82° WSW 18:55:43 10° SSE
Cosmos 1933 Rocket 3.6 18:47:12 10° SSW 18:51:34 84° W 18:56:02 10° N
Cosmos 2366 rocket 4.2 18:47:01 10° SSE 18:53:03 49° E 18:59:09 10° NNE
H-2A R/B 2.7 18:48:33 10° S 18:53:57 64° WSW 18:59:21 10° NNW
CSL-04 Debris 4.2 18:48:51 10° SSE 18:54:19 84° ENE 18:59:50 10° NNW
SJ-6B 3.6 18:53:09 10° SE 18:56:48 33° ENE 19:00:24 10° N
Cosmos 2221 Rocket 4.2 18:53:21 10° N 18:57:28 36° ENE 19:01:35 10° SE
Ariane Rocket 3.6 18:55:53 10° SE 19:00:30 36° ENE 19:05:09 10° N
USA 186 1.9 18:59:36 18° SE 19:00:59 33° ENE 19:03:27 10° N
Cosmos 1500 4.1 18:58:56 10° SSW 19:02:35 51° WNW 19:06:15 10° N
OBJECT-B 1.8 19:02:10 19° ESE 19:03:41 27° ENE 19:06:28 10° N
Okean 1-7 3.6 19:01:52 10° NNW 19:06:11 60° W 19:10:25 10° S
Meteor 1-11 Rocket 3.8 19:01:22 10° S 19:06:52 56° E 19:12:19 10° NNE
PSLV R/B 4.0 19:02:53 10° NNE 19:07:00 82° WNW 19:11:03 10° SSW
Cosmos 2360 Rocket 2.7 19:04:39 10° SW 19:10:16 63° NW 19:15:56 10° NNE
YAOGAN 1 3.9 19:06:42 10° S 19:10:49 43° W 19:14:59 10° NNW
SAR-Lupe-4 3.5 19:07:48 10° NNE 19:11:25 86° ESE 19:15:00 10° SSW
FALCON 9 DEB 3.8 19:08:44 10° W 19:11:47 44° SSW 19:13:45 19° SE
Cosmos 1943 Rocket 3.6 19:08:10 10° NNW 19:12:35 22° NE 19:15:25 16° ENE
Meteor 1-13 Rocket 4.4 19:07:28 10° NNW 19:13:26 83° W 19:19:16 10° S
SJ 16-02 1.3 19:10:37 10° NNW 19:15:02 72° ENE 19:19:19 11° SSE
Cosmos 1727 Rocket 4.0 19:09:15 10° N 19:15:26 64° ENE 19:21:36 10° SSE
Cosmos 2341 Rocket 4.1 19:10:22 10° SSW 19:16:40 81° W 19:22:58 10° N
DMSP B5D2-2 4.2 19:11:44 10° NNE 19:16:51 51° E 19:21:54 10° S
Cosmos 2333 4.2 19:11:11 10° SSW 19:16:52 90° ESE 19:22:39 10° NNE
Cosmos 2278 Rocket 2.2 19:11:25 10° NNW 19:17:07 72° ENE 19:22:11 13° SE
Cosmos 2237 Rocket 3.1 19:13:05 10° SSE 19:17:43 26° ESE 19:22:22 10° NE
Cosmos 1544 3.8 19:15:45 10° SSE 19:19:00 31° E 19:22:18 10° NNE
Okean 3 3.5 19:15:09 10° NNW 19:19:26 84° W 19:23:44 10° S
FALCON 9 DEB 4.1 19:16:40 10° W 19:19:37 36° SSW 19:21:22 19° SSE
SL-4 R/B 3.9 19:17:29 10° W 19:20:04 19° SW 19:22:35 10° S
Cosmos 1536 2.7 19:17:24 10° S 19:21:20 62° E 19:25:17 10° NNE
MOS 1 4.4 19:15:51 10° SE 19:21:21 54° ENE 19:26:52 10° N
SeaSat 1 2.6 19:19:15 10° NE 19:24:02 47° ESE 19:28:47 10° S
Abrixas rocket 4.0 19:24:31 10° WSW 19:25:59 14° SSW 19:26:46 13° S
SPOT 3 Rocket 4.3 19:24:24 23° ESE 19:26:41 33° ENE 19:31:19 10° N
Cosmos 2218 Rocket 4.0 19:20:55 10° S 19:27:19 83° E 19:33:43 10° NNE
MetOp-A 4.1 19:25:50 10° SSE 19:31:12 87° ENE 19:36:36 10° NNW
Cosmos 864 Rocket 4.4 19:25:04 10° S 19:31:15 83° E 19:37:32 10° NNE
SME Rocket 4.1 19:23:57 10° NNE 19:31:24 51° E 19:36:20 10° S
Meteor 2-20 Rocket 4.5 19:25:29 10° N 19:31:31 58° ENE 19:37:09 12° SSE
Resurs 01 Rocket 2.5 19:31:41 28° E 19:32:34 30° ENE 19:36:27 10° N
Gbstr 26 Del rocket 3.5 19:30:48 10° W 19:35:23 68° SSW 19:38:18 27° ESE
USA 234 4.0 19:33:09 23° E 19:35:27 29° SE 19:40:58 10° S
Cosmos 1959 Rocket 4.4 19:30:21 10° S 19:36:27 88° W 19:42:39 10° N
Helios 1A Rocket 4.4 19:32:50 10° SSW 19:36:36 37° W 19:40:22 10° NNW
Cosmos 2333 Rocket 2.3 19:32:08 10° SSW 19:37:49 81° WNW 19:43:37 10° NNE
Cosmos 1937 Rocket 3.8 19:32:54 10° NNW 19:37:52 45° ENE 19:39:49 31° ESE
Cosmos 2123 Rocket 4.5 19:32:38 10° N 19:38:28 39° ENE 19:41:02 27° ESE
Lacrosse 4 Rocket 1.7 19:34:58 10° SW 19:39:23 74° NW 19:43:55 10° NNE
GP-B 4.5 19:36:10 10° SSW 19:40:22 41° W 19:44:36 10° NNW
ERBS 3.4 19:38:23 10° WNW 19:41:26 33° N 19:42:16 28° NE
USA 238 DEB 3.8 19:37:44 10° SSW 19:43:59 48° ESE 19:50:34 10° NE
USA 238 3.8 19:37:51 10° SSW 19:44:06 48° ESE 19:50:40 10° NE
IGS 5A 4.5 19:44:27 28° ENE 19:44:27 28° ENE 19:47:49 10° N
Cosmos 2322 Rocket 4.1 19:39:38 10° W 19:44:27 28° NW 19:49:19 10° NNE
Cosmos 1842 3.8 19:41:32 10° N 19:45:12 38° ENE 19:45:12 38° ENE
CZ-4 R/B 4.4 19:43:55 10° SW 19:46:25 16° W 19:48:56 10° NW
Cosmos 1689 Rocket 4.5 19:44:06 10° N 19:46:33 25° WNW 19:48:59 10° SW
Cosmos 1869 Rocket 4.3 19:42:41 10° SSW 19:46:59 55° WNW 19:51:22 10° N
Resurs 1-3 3.6 19:45:27 33° SE 19:47:16 61° ENE 19:51:37 10° N
ERS-2 3.7 19:44:14 10° N 19:47:38 37° WNW 19:51:02 10° SW
IRS-1A Rocket 4.2 19:46:16 12° SSE 19:51:29 88° ENE 19:57:02 10° NNW
Cosmos 1378 4.3 19:49:04 10° NNW 19:52:37 42° W 19:56:08 10° SSW
Cosmos 2219 Rocket 2.4 19:48:28 10° SW 19:54:03 71° WNW 19:59:43 10° NNE
CZ-2C R/B 3.2 19:49:29 10° N 19:54:52 59° WNW 20:00:06 10° SSW
CREW DRAGON DEMO-1 DEB 4.4 19:53:44 10° SW 19:55:13 25° SW 19:55:13 25° SW
Cosmos 1238 Rocket 2.8 19:52:51 10° SSW 19:56:47 69° W 20:00:07 10° N
USA 305 3.2 19:53:32 10° WNW 19:57:45 58° SSW 19:58:46 44° SSE
Terra 3.8 20:00:53 14° NE 20:00:53 14° NE 20:02:40 10° NNE
NOSS 5 (C) 4.4 19:56:46 10° SW 20:01:01 75° SE 20:01:05 74° ESE
Cosmos 1980 3.7 19:56:40 10° S 20:02:08 55° ESE 20:07:41 10° NE
ERS-1 Rocket 4.4 20:03:06 21° NE 20:03:06 21° NE 20:06:28 10° N
Cosmos 1733 Rocket 2.9 19:59:46 10° S 20:04:06 81° E 20:08:31 10° NNE
COSMOS 2428 3.1 20:03:29 10° SW 20:09:09 66° NW 20:14:51 10° NNE
Meteor 2-9 Rocket 4.2 20:10:29 48° E 20:10:29 48° E 20:15:34 10° NNE
USA 307 3.3 20:07:20 10° WNW 20:11:30 51° SSW 20:12:00 48° S
NOSS 3-2 (A) 3.3 20:06:56 10° SW 20:12:39 77° SE 20:19:19 10° NE
USA 306 3.4 20:08:35 10° WNW 20:12:44 49° SSW 20:13:13 46° S
Spot 2 Rocket 4.2 20:14:35 36° ENE 20:14:35 36° ENE 20:19:02 10° N
ATLAS CENTAUR R/B 3.6 20:12:30 10° WNW 20:15:14 19° NNW 20:17:48 11° NNE
Cosmos 1743 3.0 20:12:53 10° SSW 20:16:45 65° WNW 20:20:39 10° N
Cosmos 2369 Rocket 3.1 20:12:29 10° NNW 20:17:28 31° NE 20:18:00 31° NE
Cosmos 1898 Rocket 3.6 20:12:17 10° NNW 20:17:31 75° WSW 20:19:30 39° S
USA 308 3.5 20:18:11 10° WNW 20:22:16 45° SSW 20:22:24 45° SSW
NOSS 0 Rocket 3.8 20:16:19 10° SSW 20:22:29 86° ESE 20:28:41 10° NNE
CENTAUR R/B 2.4 20:18:09 10° SSW 20:24:05 66° SE 20:31:14 10° NE
ASTEX 1 4.4 20:24:56 10° N 20:29:36 46° WNW 20:34:15 10° SSW
Cosmos 1674 Rocket 4.1 20:27:09 10° NNW 20:31:22 55° W 20:32:24 43° SW
Landsat 7 3.8 20:34:35 73° NE 20:34:35 73° NE 20:39:07 10° NNW
Cosmos 372 Rocket 3.9 20:30:30 10° NNW 20:35:35 69° NE 20:35:35 69° NE
OBJECT-B 3.1 20:35:13 20° WSW 20:35:56 22° W 20:38:33 10° NW
ARIANE 5 R/B 3.6 20:39:17 38° NNE 20:39:17 38° NNE 20:42:22 10° N
Ariane Rocket 4.2 20:35:45 16° SSW 20:39:25 40° W 20:44:15 10° NNW
ATLAS 5 CENTAUR R/B 3.8 20:36:41 10° WNW 20:40:16 19° NNW 20:40:39 19° N
Okean 2 4.0 20:37:34 10° NNW 20:40:56 55° NW 20:40:56 55° NW
Cosmos 1763 Rocket 3.4 20:38:47 10° SSW 20:44:07 88° WNW 20:49:29 10° NNE
Cosmos 2297 3.5 20:38:25 10° NNW 20:44:12 87° ENE 20:44:37 78° SE
Cosmos 1378 Rocket 4.4 20:41:29 10° NNW 20:45:47 48° W 20:46:26 44° WSW
MetOp-B 4.0 20:45:40 80° S 20:46:00 89° WSW 20:51:25 10° NNW
In-Cosmos 22 4.2 20:43:08 10° N 20:48:36 69° NE 20:48:36 69° NE
Cosmos 1707 4.5 20:45:44 10° N 20:47:38 27° N 20:47:38 27° N
Cosmos 1975 Rocket 4.2 20:47:07 10° N 20:49:55 37° N 20:49:55 37° N
Cosmos 1125 Rocket 4.4 20:47:51 10° NNW 20:51:54 37° NNE 20:51:54 37° NNE
SJ 16-02 4.1 20:50:24 10° WNW 20:53:04 16° W 20:55:44 10° SW
NOSS 3-2 (C) 3.3 20:48:41 10° SW 20:54:27 85° SE 20:55:56 56° NE
USA 281 4.1 20:54:08 32° NE 20:54:37 32° NE 21:00:18 10° NNW
Cosmos 468 Rocket 4.2 20:50:41 10° SSW 20:55:59 70° WNW 21:01:17 10° NNE
Cosmos 1943 Rocket 2.2 20:51:34 10° NNW 20:56:57 75° NNE 20:56:57 75° NNE
Cosmos 2278 Rocket 4.1 20:56:16 10° NW 21:00:41 24° WSW 21:04:05 14° SSW
Cosmos 2237 Rocket 2.5 20:55:40 10° SW 21:01:20 66° WNW 21:07:03 10° NNE
SeaSat 1 3.8 20:56:56 10° NNE 21:01:29 38° NW 21:06:00 10° WSW
Cosmos 1535 Rocket 4.5 21:00:59 57° SSW 21:02:26 86° W 21:08:51 10° N
SPOT 3 Rocket 4.4 21:05:03 42° SW 21:05:57 46° W 21:11:00 10° NNW
Resurs 01 Rocket 2.9 21:09:14 37° W 21:09:14 37° W 21:13:08 10° NNW
USA 245 4.4 21:12:27 74° WSW 21:12:39 75° WSW 21:19:02 10° NNW
SPOT 1/Viking Rocket 4.0 21:14:33 60° NW 21:14:33 60° NW 21:18:57 10° NNW
Cosmos 1934 Rocket 4.2 21:14:32 47° SW 21:16:09 65° WNW 21:22:19 10° N
Lacrosse 4 Rocket 4.1 21:15:35 10° WNW 21:18:51 19° NNW 21:22:05 10° NNE
USA 234 3.4 21:20:31 58° SW 21:20:31 58° SW 21:25:42 10° SW
SPOT 5 4.5 21:24:59 27° N 21:24:59 27° N 21:27:03 10° NNW
Cosmos 2333 Rocket 4.4 21:18:30 10° W 21:23:01 23° NW 21:27:35 10° NNE
USA 238 DEB 4.2 21:28:20 10° WSW 21:34:54 57° NW 21:41:51 10° NE
USA 238 4.1 21:28:27 10° WSW 21:35:00 57° NW 21:41:57 10° NE
Terra 3.6 21:39:46 27° N 21:39:46 27° N 21:41:55 10° NNW
ERS-1 Rocket 4.3 21:43:05 36° NNW 21:43:05 36° NNW 21:46:05 10° NNW
Cosmos 2369 Rocket 3.4 21:56:21 10° NW 21:59:48 38° NW 21:59:48 38° NW
CENTAUR R/B 3.5 22:08:59 10° W 22:15:11 47° NNW 22:22:34 10° NE
USA 281 4.1 22:40:59 43° NW 22:40:59 43° NW 22:45:15 10° NNW
Cosmos 1943 Rocket 4.4 22:36:14 10° NW 22:38:29 18° WNW 22:38:29 18° WNW
Cosmos 2237 Rocket 4.5 22:42:21 10° W 22:46:32 20° NNW 22:50:43 10° NNE
SL-16 R/B 4.4 23:11:26 21° N 23:11:26 21° N 23:13:49 10° NNE
